Location: Lourdes
(43.1000°N, 0.0500°W)
Time: 12:57:02
(UTC+00:00)

Meteor 1-26 Rocket - Pass Details

Date: 30 November 2020
Orbit: 807 x 928 km, 81.3° (Epoch: 25 January)

Event Time Altitude Azimuth Distance (km) Brightness Sun altitude
Rises 17:51:23 0° 191° (SSW) 3,554 7.8 -15.1°
Reaches altitude 10° 17:53:51 10° 193° (SSW) 2,621 7.1 -15.5°
Maximum altitude 17:59:53 80° 280° (W) 947 4.5 -16.6°
Drops below altitude 10° 18:05:55 10° 8° (N) 2,626 6.5 -17.7°
Sets 18:08:24 0° 10° (N) 3,562 7.2 -18.1°
